ARIANE 5 DEB (SYLDA), 41947

Orbit data source: Space-Track

ARIANE 5 DEB (SYLDA), 41947 is space debris originally from a launch on Tue, 14 Feb 2017 UTC launched from the French Guiana (FRGUI). Debris objects in space refer to the collection of defunct objects orbiting the Earth. Examples of debris include non-operational satellites, rocket bodies, and fragments generated from explosions, collisions, or faulty payload assembly.

Loading next visibility...
Identifier
41947, 2017-007D
Orbit
Active
Country
Flag of FRFR
Related business
Manufacturer
ADS/Bremen
Mission
Spacecraft
Bus & Motor
SYLDA 5, Unknown motor
Mass
440 kg wet, 440 kg dry
Launch date (UTC)
2017-02-14 (9 years ago)
Launch vehicle
Unknown
Launch site
French Guiana (FRGUI)
Object type
Payload
Rocket body
Debris
Shape & HBR
Cyl, 2.8 m
Radar Cross Section
27.391 m², Large (>1 m²)

Expand to show TLE details & history
Last TLE update: 16 hours ago

TLE from 16 hours ago
0 ARIANE 5 DEB (SYLDA)
1 41947U 17007D   26170.96965711  .00181071  00000-0  41959-2 0  9998
2 41947   3.9511  95.4046 4393559 191.4273 153.9270  6.80093512113331
Epoch: 2026-06-19T23:16Z
TLE epoch observation values (Epoch: 2026-06-19T23:16:18.374Z)
Latitude
Longitude
-161.86295°
Altitude
10,297.17 km
Speed
3.734 km/s
True Right ascension
06h 21m 37s
True Declination
0° 00' 00"
Sunlit
Object was in daylight at epoch
Visualization orbit readout
Latitude
Unknown
Longitude
Unknown
Altitude
Unknown
Speed
Unknown
Apparent Right ascension
Unknown
Apparent Declination
Unknown
Sunlit
N/A
Visualization observer readout
Local Sidereal Time
02:32:17
Azimuth
Unknown
Elevation
Unknown
Doppler factor
Unknown
Orbital elements
Apogee altitude
10,567.078 km
Perigee altitude
222.201 km
Semi-major axis
11,772.776 km
Eccentricity
0.43936
Inclination
3.9511°
RAAN
95.4046°
Arg. of periapsis
191.4273°
True anomaly
168.57798°
Mean anomaly
153.927°
Eccentric anomaly
161.79258°
Mean motion
1.69912 °/min
Orbital period
211.87 mins
BSTAR
0.0041959
Loading maneuver chart data...
Computing Atmospheric mass density...
Loading historical data...
Loading historical data...
Loading historical data...
Loading historical data...
Loading historical data...
Loading historical data...
Loading historical data...
Other satellites on launch #7 in the year 2017 (2017-02-14 UTC)

Documentation

Showing up to 5 results
|